�������l�o���
Date,Time,MP-1(��Sv/h),MP-2(��Sv/h),MP-3(��Sv/h),MP-4(��Sv/h),MP-5(��Sv/h),MP-6(��Sv/h),MP-7(��Sv/h),MP-8(��Sv/h),����,����(m/s),���J
2018/09/03,00:00,0.788,1.131,0.817,1.443,1.037,0.461,0.797,0.758,�k��,3.2,��
2018/09/03,00:10,0.789,1.135,0.817,1.445,1.038,0.462,0.797,0.758,�k��,2.6,��
2018/09/03,00:20,0.788,1.137,0.816,1.448,1.040,0.462,0.796,0.759,�k��,2.8,��
2018/09/03,00:30,0.790,1.137,0.816,1.450,1.037,0.462,0.798,0.759,�k�k��,3.6,��
2018/09/03,00:40,0.789,1.139,0.817,1.452,1.040,0.464,0.799,0.760,�k��,3.0,��
2018/09/03,00:50,0.790,1.141,0.816,1.453,1.043,0.464,0.797,0.760,�k�k��,2.3,��
2018/09/03,01:00,0.788,1.140,0.820,1.454,1.046,0.464,0.798,0.761,�k��,2.0,��
2018/09/03,01:10,0.788,1.142,0.821,1.454,1.044,0.464,0.799,0.761,�k��,2.8,��
2018/09/03,01:20,0.790,1.143,0.820,1.458,1.045,0.465,0.797,0.761,�k��,3.0,��
2018/09/03,01:30,0.792,1.145,0.819,1.458,1.042,0.466,0.799,0.762,�k��,2.6,��
2018/09/03,01:40,0.792,1.145,0.821,1.459,1.046,0.466,0.799,0.761,�k��,2.3,��
2018/09/03,01:50,0.792,1.148,0.820,1.457,1.048,0.464,0.800,0.761,�k��,2.0,��
2018/09/03,02:00,0.793,1.147,0.822,1.460,1.044,0.466,0.800,0.761,�k��,2.2,��
2018/09/03,02:10,0.791,1.148,0.823,1.458,1.048,0.467,0.800,0.763,�k�k��,2.5,��
2018/09/03,02:20,0.791,1.151,0.821,1.459,1.048,0.465,0.801,0.764,�k�k��,2.5,��
2018/09/03,02:30,0.792,1.150,0.823,1.461,1.049,0.466,0.801,0.764,�k�k��,2.3,��
2018/09/03,02:40,0.794,1.149,0.825,1.461,1.049,0.467,0.800,0.763,�k�k��,2.0,��
2018/09/03,02:50,0.794,1.148,0.823,1.461,1.049,0.465,0.802,0.761,�k�k��,1.7,��
2018/09/03,03:00,0.792,1.148,0.824,1.460,1.046,0.465,0.802,0.763,�k�k��,2.3,��
2018/09/03,03:10,0.794,1.148,0.825,1.461,1.051,0.467,0.801,0.762,�k�k��,3.4,��
2018/09/03,03:20,0.791,1.151,0.824,1.463,1.049,0.466,0.801,0.763,�k�k��,3.5,��
2018/09/03,03:30,0.793,1.152,0.823,1.461,1.049,0.466,0.802,0.763,�k�k��,3.8,��
2018/09/03,03:40,0.794,1.151,0.824,1.464,1.051,0.466,0.803,0.764,�k�k��,3.8,��
2018/09/03,03:50,0.794,1.151,0.825,1.465,1.049,0.465,0.802,0.764,�k�k��,4.0,��
2018/09/03,04:00,0.794,1.152,0.824,1.461,1.050,0.466,0.803,0.763,�k�k��,3.5,��
2018/09/03,04:10,0.792,1.153,0.824,1.464,1.050,0.465,0.802,0.763,�k��,4.0,��
2018/09/03,04:20,0.792,1.151,0.825,1.465,1.050,0.466,0.802,0.764,�k��,2.8,��
2018/09/03,04:30,0.792,1.153,0.824,1.462,1.053,0.466,0.803,0.764,�k��,1.9,��
2018/09/03,04:40,0.790,1.150,0.822,1.463,1.051,0.465,0.802,0.763,�k��,0.6,��
2018/09/03,04:50,0.793,1.151,0.824,1.465,1.052,0.467,0.801,0.763,-,CALM,��
2018/09/03,05:00,0.791,1.155,0.826,1.461,1.050,0.466,0.804,0.765,-,CALM,��
2018/09/03,05:10,0.793,1.154,0.824,1.462,1.052,0.466,0.804,0.765,-,CALM,��
2018/09/03,05:20,0.792,1.152,0.824,1.464,1.053,0.466,0.804,0.763,�k��,0.8,��
2018/09/03,05:30,0.794,1.152,0.826,1.465,1.052,0.466,0.804,0.764,-,CALM,��
2018/09/03,05:40,0.794,1.155,0.825,1.465,1.052,0.466,0.804,0.764,�k,1.1,��
2018/09/03,05:50,0.794,1.154,0.826,1.466,1.052,0.465,0.803,0.765,�k,0.9,��
2018/09/03,06:00,0.794,1.152,0.824,1.464,1.052,0.464,0.803,0.764,�k�k��,0.9,��
2018/09/03,06:10,0.795,1.155,0.824,1.465,1.054,0.466,0.804,0.764,�k��,1.2,��
2018/09/03,06:20,0.795,1.153,0.825,1.469,1.052,0.466,0.805,0.763,-,CALM,��
2018/09/03,06:30,0.794,1.153,0.826,1.466,1.052,0.466,0.804,0.765,�k��,0.6,��
2018/09/03,06:40,0.793,1.156,0.824,1.467,1.054,0.466,0.805,0.765,�k��,1.2,��
2018/09/03,06:50,0.795,1.154,0.828,1.465,1.053,0.466,0.804,0.766,�k�k��,1.5,��
2018/09/03,07:00,0.795,1.155,0.825,1.466,1.055,0.466,0.805,0.764,�k,1.5,��
2018/09/03,07:10,0.794,1.160,0.824,1.468,1.054,0.467,0.807,0.766,�k�k��,2.3,��
2018/09/03,07:20,0.795,1.156,0.826,1.465,1.055,0.467,0.805,0.767,�k,2.9,��
2018/09/03,07:30,0.795,1.156,0.826,1.466,1.056,0.466,0.806,0.766,�k,2.3,��
2018/09/03,07:40,0.797,1.154,0.826,1.466,1.054,0.466,0.805,0.763,�k,2.8,��
2018/09/03,07:50,0.793,1.155,0.824,1.468,1.055,0.467,0.805,0.766,�k�k��,3.2,��
2018/09/03,08:00,0.793,1.155,0.824,1.468,1.056,0.464,0.804,0.763,�k�k��,2.6,��
2018/09/03,08:10,0.795,1.158,0.823,1.466,1.055,0.465,0.804,0.766,�k�k��,3.0,��
2018/09/03,08:20,0.796,1.155,0.824,1.466,1.056,0.465,0.806,0.765,�k�k��,2.3,��
2018/09/03,08:30,0.794,1.153,0.826,1.468,1.055,0.465,0.804,0.765,�k�k��,2.9,��
2018/09/03,08:40,0.792,1.155,0.824,1.467,1.054,0.463,0.805,0.764,�k�k��,2.6,��
2018/09/03,08:50,0.792,1.154,0.822,1.467,1.054,0.464,0.805,0.764,�k�k��,2.5,��
2018/09/03,09:00,0.791,1.152,0.825,1.468,1.055,0.462,0.805,0.764,�k�k��,2.3,��
2018/09/03,09:10,0.792,1.150,0.825,1.467,1.057,0.463,0.806,0.762,�k,2.0,��
2018/09/03,09:20,0.791,1.153,0.823,1.468,1.054,0.463,0.806,0.764,�k,1.9,��
2018/09/03,09:30,0.793,1.153,0.823,1.467,1.054,0.463,0.806,0.763,�k�k��,1.5,��
2018/09/03,09:40,0.792,1.152,0.825,1.468,1.055,0.463,0.805,0.762,�k,1.1,��
2018/09/03,09:50,0.791,1.151,0.824,1.467,1.055,0.461,0.804,0.765,�k�k��,1.5,��
2018/09/03,10:00,0.792,1.151,0.824,1.468,1.053,0.462,0.806,0.762,�k�k��,0.8,��
2018/09/03,10:10,0.792,1.151,0.824,1.468,1.054,0.462,0.806,0.763,�k��,0.9,��
2018/09/03,10:20,0.791,1.150,0.824,1.469,1.056,0.462,0.805,0.761,�k��,1.5,��
2018/09/03,10:30,0.793,1.152,0.824,1.467,1.056,0.461,0.804,0.764,�k,0.9,��
2018/09/03,10:40,0.794,1.154,0.826,1.468,1.056,0.462,0.807,0.765,�k,0.6,��
2018/09/03,10:50,0.794,1.155,0.826,1.467,1.056,0.462,0.806,0.765,���k��,0.9,��
2018/09/03,11:00,0.794,1.154,0.826,1.467,1.056,0.463,0.807,0.764,���k��,0.9,��
2018/09/03,11:10,0.793,1.157,0.824,1.470,1.056,0.463,0.807,0.762,���쓌,0.8,��
2018/09/03,11:20,0.792,1.154,0.827,1.470,1.056,0.461,0.804,0.764,��쓌,1.4,��
2018/09/03,11:30,0.792,1.156,0.826,1.468,1.055,0.463,0.807,0.761,��쓌,1.4,��
2018/09/03,11:40,0.795,1.158,0.824,1.471,1.057,0.463,0.806,0.764,��쓌,0.9,��
2018/09/03,11:50,0.794,1.158,0.824,1.470,1.059,0.462,0.808,0.764,��쓌,1.4,��
2018/09/03,12:00,0.794,1.160,0.825,1.470,1.057,0.462,0.805,0.762,�쓌,1.1,��
2018/09/03,12:10,0.792,1.161,0.825,1.468,1.058,0.463,0.807,0.766,�쓌,1.5,��
2018/09/03,12:20,0.795,1.159,0.824,1.469,1.060,0.463,0.807,0.765,���쓌,1.5,��
2018/09/03,12:30,0.795,1.158,0.826,1.472,1.059,0.463,0.808,0.765,��,2.0,��
2018/09/03,12:40,0.795,1.157,0.827,1.471,1.060,0.464,0.807,0.763,��,1.9,��
2018/09/03,12:50,0.793,1.158,0.826,1.472,1.058,0.463,0.808,0.764,��,1.9,��
2018/09/03,13:00,0.793,1.158,0.826,1.473,1.060,0.462,0.807,0.764,�k��,2.2,��
2018/09/03,13:10,0.792,1.158,0.826,1.473,1.061,0.463,0.807,0.764,�k��,2.3,��
2018/09/03,13:20,0.793,1.159,0.828,1.473,1.061,0.464,0.807,0.766,�k��,2.0,��
2018/09/03,13:30,0.793,1.161,0.828,1.470,1.061,0.464,0.807,0.764,�k��,2.5,��
2018/09/03,13:40,0.794,1.160,0.824,1.470,1.062,0.464,0.808,0.765,�k��,2.5,��
2018/09/03,13:50,0.794,1.160,0.828,1.470,1.061,0.465,0.808,0.764,�k��,2.2,��
2018/09/03,14:00,0.796,1.159,0.826,1.472,1.063,0.464,0.806,0.765,�k��,2.6,��
2018/09/03,14:10,0.794,1.160,0.827,1.473,1.062,0.463,0.807,0.766,�k��,2.3,��
2018/09/03,14:20,0.795,1.162,0.827,1.469,1.062,0.464,0.808,0.766,���k��,2.3,��
2018/09/03,14:30,0.796,1.159,0.826,1.471,1.060,0.465,0.809,0.765,���k��,1.7,��
2018/09/03,14:40,0.796,1.164,0.827,1.474,1.063,0.465,0.809,0.765,��,1.5,�L
2018/09/03,14:50,0.798,1.164,0.828,1.473,1.062,0.465,0.808,0.767,���쓌,1.5,��
2018/09/03,15:00,0.794,1.167,0.824,1.473,1.062,0.465,0.809,0.767,���쓌,1.7,�L
2018/09/03,15:10,0.794,1.165,0.826,1.472,1.065,0.466,0.811,0.766,��쓌,1.2,��
2018/09/03,15:20,0.796,1.165,0.828,1.473,1.062,0.465,0.810,0.765,��,0.8,��
2018/09/03,15:30,0.796,1.166,0.827,1.473,1.063,0.465,0.809,0.766,��쓌,0.6,��
2018/09/03,15:40,0.797,1.165,0.832,1.475,1.065,0.465,0.809,0.766,��쐼,2.0,��
2018/09/03,15:50,0.796,1.168,0.829,1.474,1.063,0.466,0.808,0.766,���쓌,1.2,��
2018/09/03,16:00,0.796,1.170,0.830,1.476,1.062,0.466,0.809,0.766,��쓌,1.2,��
2018/09/03,16:10,0.796,1.167,0.830,1.475,1.064,0.465,0.809,0.766,��쐼,1.9,��
2018/09/03,16:20,0.795,1.171,0.829,1.475,1.065,0.465,0.811,0.765,��,2.6,�L
2018/09/03,16:30,0.796,1.170,0.830,1.475,1.064,0.465,0.810,0.767,��,1.9,�L
2018/09/03,16:40,0.794,1.170,0.831,1.476,1.065,0.465,0.810,0.766,��,2.6,��
2018/09/03,16:50,0.796,1.171,0.833,1.474,1.067,0.465,0.810,0.768,��,1.2,��
2018/09/03,17:00,0.796,1.170,0.831,1.478,1.067,0.463,0.810,0.767,��쓌,1.7,��
2018/09/03,17:10,0.798,1.173,0.831,1.476,1.067,0.464,0.809,0.767,��쓌,2.2,��
2018/09/03,17:20,0.797,1.173,0.831,1.478,1.067,0.467,0.808,0.766,��쓌,2.9,��
2018/09/03,17:30,0.795,1.174,0.832,1.481,1.069,0.465,0.806,0.767,��쓌,3.0,��
2018/09/03,17:40,0.798,1.171,0.832,1.476,1.066,0.465,0.810,0.768,��쓌,3.2,��
2018/09/03,17:50,0.799,1.176,0.832,1.475,1.066,0.466,0.807,0.767,��,3.5,��
2018/09/03,18:00,0.796,1.171,0.833,1.478,1.067,0.466,0.810,0.768,��쓌,3.9,��
2018/09/03,18:10,0.797,1.172,0.832,1.478,1.066,0.465,0.810,0.768,��쓌,4.4,��
2018/09/03,18:20,0.796,1.174,0.833,1.476,1.066,0.468,0.810,0.770,��,4.9,��
2018/09/03,18:30,0.796,1.172,0.834,1.476,1.070,0.467,0.811,0.768,��쓌,4.6,��
2018/09/03,18:40,0.798,1.174,0.830,1.479,1.067,0.465,0.812,0.768,��,3.4,��
2018/09/03,18:50,0.798,1.174,0.831,1.477,1.067,0.466,0.810,0.768,��쓌,2.2,��
2018/09/03,19:00,0.798,1.174,0.832,1.478,1.066,0.465,0.811,0.769,��,3.5,��
2018/09/03,19:10,0.798,1.175,0.831,1.478,1.067,0.466,0.810,0.767,��,3.4,��
2018/09/03,19:20,0.795,1.175,0.833,1.478,1.068,0.466,0.812,0.770,��,4.6,��
2018/09/03,19:30,0.797,1.173,0.835,1.477,1.069,0.467,0.811,0.769,��,4.9,��
2018/09/03,19:40,0.798,1.177,0.833,1.478,1.068,0.467,0.812,0.769,��,5.4,��
2018/09/03,19:50,0.797,1.172,0.833,1.477,1.068,0.467,0.812,0.768,��,5.2,��
2018/09/03,20:00,0.799,1.175,0.832,1.479,1.067,0.465,0.812,0.768,��,5.5,��
2018/09/03,20:10,0.798,1.175,0.835,1.478,1.069,0.467,0.810,0.769,��,5.6,��
2018/09/03,20:20,0.797,1.174,0.834,1.477,1.067,0.468,0.811,0.769,��,4.7,��
2018/09/03,20:30,0.798,1.175,0.833,1.478,1.068,0.467,0.811,0.769,��,4.3,��
2018/09/03,20:40,0.799,1.176,0.833,1.478,1.069,0.468,0.812,0.768,��,4.0,��
2018/09/03,20:50,0.797,1.176,0.835,1.477,1.069,0.467,0.809,0.768,��,3.7,��
2018/09/03,21:00,0.800,1.174,0.831,1.478,1.071,0.469,0.811,0.769,��,3.3,��
2018/09/03,21:10,0.799,1.174,0.833,1.479,1.069,0.468,0.812,0.768,��쐼,3.3,��
2018/09/03,21:20,0.798,1.176,0.832,1.478,1.071,0.467,0.811,0.768,��쐼,3.1,��
2018/09/03,21:30,0.800,1.175,0.833,1.479,1.068,0.467,0.810,0.769,��쐼,3.2,��
2018/09/03,21:40,0.799,1.176,0.833,1.480,1.069,0.468,0.811,0.769,��,2.6,��
2018/09/03,21:50,0.798,1.176,0.834,1.479,1.068,0.468,0.811,0.769,��,3.2,��
2018/09/03,22:00,0.799,1.177,0.833,1.477,1.067,0.469,0.811,0.771,��,3.4,��
2018/09/03,22:10,0.799,1.176,0.834,1.480,1.069,0.467,0.810,0.770,��,3.0,��
2018/09/03,22:20,0.799,1.176,0.832,1.478,1.068,0.467,0.810,0.769,��,3.6,��
2018/09/03,22:30,0.799,1.174,0.834,1.477,1.070,0.469,0.812,0.769,��,4.0,��
2018/09/03,22:40,0.797,1.173,0.835,1.478,1.070,0.469,0.812,0.768,��,3.4,��
2018/09/03,22:50,0.798,1.173,0.832,1.479,1.067,0.469,0.811,0.768,��쓌,2.9,��
2018/09/03,23:00,0.800,1.175,0.831,1.478,1.070,0.467,0.811,0.770,��,2.8,��
2018/09/03,23:10,0.800,1.174,0.836,1.477,1.070,0.468,0.812,0.771,��쓌,3.3,��
2018/09/03,23:20,0.799,1.176,0.833,1.478,1.070,0.468,0.813,0.770,��,3.3,��
2018/09/03,23:30,0.800,1.174,0.834,1.480,1.070,0.470,0.810,0.769,��,2.8,��
2018/09/03,23:40,0.799,1.175,0.833,1.481,1.071,0.470,0.811,0.769,��,1.9,��
2018/09/03,23:50,0.798,1.173,0.833,1.479,1.069,0.468,0.811,0.768,��쐼,2.0,��
